This is the latest recevied weather packets stored in our database for station/object K1AWR. If no packets are shown the sender has not sent any weather packets the latest 10 day(s).
| Time | Temp. | Humidity | Pressure | Rain* | Wind** | Luminosity | Snow |
|---|---|---|---|---|---|---|---|
| 1778151616 | 9.44° C | 77% | 1009.9 hPa | 0 mm | - | 42 W/m² | - |
| 1778151313 | 8.89° C | 82% | 1009.8 hPa | 0 mm | - | 36 W/m² | - |
| 1778151009 | 8.89° C | 83% | 1009.7 hPa | 0 mm | - | 31 W/m² | - |
| 1778150707 | 8.89° C | 86% | 1009.7 hPa | 0 mm | - | 22 W/m² | - |
| 1778150402 | 8.89° C | 87% | 1009.6 hPa | 0 mm | - | 19 W/m² | - |
| 1778150099 | 8.33° C | 88% | 1009.6 hPa | 0 mm | - | 11 W/m² | - |
| 1778149795 | 8.33° C | 88% | 1009.6 hPa | 0 mm | - | 10 W/m² | - |
| 1778149492 | 8.33° C | 89% | 1009.5 hPa | 0 mm | - | 10 W/m² | - |
| 1778149189 | 8.89° C | 87% | 1009.2 hPa | 0 mm | - | 6 W/m² | - |
| 1778148884 | 8.89° C | 87% | 1009.1 hPa | 0 mm | - | 6 W/m² | - |
| 1778148580 | 8.89° C | 86% | 1009.3 hPa | 0 mm | - | 4 W/m² | - |
| 1778148278 | 8.89° C | 86% | 1009.3 hPa | 0 mm | - | 4 W/m² | - |
| 1778147976 | 8.89° C | 84% | 1009.3 hPa | 0 mm | - | 2 W/m² | - |
| 1778147673 | 8.89° C | 85% | 1009.2 hPa | 0 mm | - | 1 W/m² | - |
| 1778147370 | 8.89° C | 87% | 1009.2 hPa | 0 mm | - | 1 W/m² | - |
| 1778147066 | 8.89° C | 87% | 1009.3 hPa | 0 mm | - | 0 W/m² | - |
| 1778146764 | 8.89° C | 86% | 1008.9 hPa | 0 mm | - | 0 W/m² | - |
| 1778146461 | 8.89° C | 87% | 1009.2 hPa | 0 mm | - | 0 W/m² | - |
| 1778146160 | 9.44° C | 87% | 1008.9 hPa | 0 mm | - | 0 W/m² | - |
| 1778145855 | 9.44° C | 88% | 1009 hPa | 0 mm | - | 0 W/m² | - |
| 1778145552 | 9.44° C | 90% | 1008.9 hPa | 0 mm | - | 0 W/m² | - |
| 1778145249 | 9.44° C | 91% | 1009 hPa | 0 mm | - | 0 W/m² | - |
| 1778144944 | 9.44° C | 91% | 1008.7 hPa | 0 mm | - | 0 W/m² | - |
| 1778144641 | 9.44° C | 91% | 1009 hPa | 0 mm | - | 0 W/m² | - |
| 1778144338 | 9.44° C | 91% | 1008.8 hPa | 1.78 mm | - | 0 W/m² | - |
* Rain latest hour (hover to see other rain measurements)
** Current wind speed in m/s (hover to see current wind gust speed)